Location: Gull Harbor
(47.1000°N, 122.9000°W)
Time: 17:15:02
(UTC-07:00)

Envisat - Visible Passes

Search period start: 16 October 2019 00:00
Search period end: 26 October 2019 00:00
Orbit: 764 x 766 km, 98.1° (Epoch: 16 October)

Date Brightness Start Highest point End Pass type
(mag) Time Alt. Az. Time Alt. Az. Time Alt. Az.
16 Oct 6.4 06:46:20 10° ENE 06:48:47 13° E 06:51:14 10° ESE visible
16 Oct 4.0 19:41:09 10° S 19:46:03 49° W 19:51:00 10° NNW visible
17 Oct 3.0 19:04:09 10° SSE 19:09:14 82° ENE 19:14:21 10° NNW visible
17 Oct 6.0 20:46:14 10° WSW 20:48:53 14° W 20:51:34 10° NW visible
18 Oct 5.0 20:07:19 10° SSW 20:11:43 29° W 20:16:09 10° NW visible
19 Oct 6.7 06:36:27 10° ENE 06:37:22 10° E 06:38:17 10° E visible
19 Oct 3.6 19:29:44 10° S 19:34:45 61° W 19:39:48 10° NNW visible
20 Oct 3.0 18:52:57 10° SSE 18:57:59 66° ENE 19:03:02 10° N visible
20 Oct 5.8 20:34:07 10° SW 20:37:29 18° W 20:40:53 10° NW visible
21 Oct 6.1 06:59:45 10° NE 07:03:14 18° E 07:06:42 10° SE visible
21 Oct 4.6 19:55:43 10° SSW 20:00:22 36° W 20:05:04 10° NNW visible
22 Oct 3.2 19:18:23 10° S 19:23:28 76° WSW 19:28:34 10° NNW visible
23 Oct 3.1 18:41:50 10° SE 18:46:45 53° ENE 18:51:43 10° N visible
23 Oct 5.5 20:22:13 10° SW 20:26:06 22° W 20:30:01 10° NW visible
24 Oct 6.2 06:49:02 10° NE 06:51:50 15° E 06:54:37 10° ESE visible
24 Oct 4.2 19:44:12 10° S 19:49:03 45° W 19:53:56 10° NNW visible
25 Oct 3.0 19:07:07 10° SSE 19:12:12 88° ENE 19:17:19 10° NNW visible
25 Oct 6.1 20:49:39 10° WSW 20:51:56 13° W 20:54:13 10° WNW visible
